Powrót do katalogu

SL-16 DEB

AktywnyLEO
NORAD 39721·DEBRIS·🇷🇺 Russia

Wystrzelony Dec 25, 1992 z Baikonur Cosmodrome

Loading…

Następne Przeloty (najbliższe 24 godziny)

TLE

Starzejące sięSource: Space-Track

Epoka: Sep 12, 2026, 10:07 UTC

1 39721U 92093KM  26255.42173137  .00000142  00000-0  12650-3 0  9997
2 39721  71.1911  45.5591 0125532  36.7282 324.2352 13.96204234631565

Śledź SL-16 DEB w czasie rzeczywistym z AllMySat

Download on the App Store